Anaktuvuk Pass, AK

9:22 AM AKDT on July 20, 2017 (GMT -0800)
Anaktuvuk Pass

Weather History for PAKP - April, 2013

Change the Weather History Date:

Wednesday, April 3, 2013

  Actual Average Record
Temperature  
Mean Temperature -8 °F -  
Max Temperature 6 °F 6 °F 28 °F (2008)
Min Temperature -23 °F -4 °F -25 °F (2012)
Degree Days  
Heating Degree Days 74    
Moisture  
Dew Point -17 °F    
Average Humidity 65    
Maximum Humidity 100    
Minimum Humidity 30    
Precipitation  
Precipitation 0.00 in - - ()
Sea Level Pressure  
Sea Level Pressure 30.42 in    
Wind  
Wind Speed 4 mph (NNW)    
Max Wind Speed 7 mph    
Max Gust Speed -    
Visibility 8 miles    
Events      
Averages and records for this station are not official NWS values.
T = Trace of Precipitation, MM = Missing Value Source: NWS Daily Summary

Daily Weather History Graph

Daily Weather History Graph

Search for Another Location

Airport or City:

Trip Planner

Search our weather history database for the weather conditions in past years. The results will help you decide how hot, cold, wet, or windy it might be!

Date:

Astronomy

Apr. 03, 2013 Rise Set
Actual Time 7:04 AM AKDT 9:17 PM AKDT
Civil Twilight 6:04 AM AKDT 10:19 PM AKDT
Nautical Twilight 4:37 AM AKDT 11:47 PM AKDT
Astronomical Twilight 2:42 AM AKDT 1:37 AM AKDT
Moon 6:08 AM AKDT (4/3) 11:31 AM AKDT (4/3)
Length of Visible Light 16h 14m
Length of Day
14h 12m
Last Quarter, 43% of the Moon is Illuminated
Apr 3
Last Quarter
Apr 10
New
Apr 18
First Quarter
Apr 25
Full
May 2
Last Quarter

Hourly Weather History & Observations

Time (AKDT) Temp. Windchill Dew Point Humidity Pressure Visibility Wind Dir Wind Speed Gust Speed Precip Events Conditions
12:16 AM -16.6 °F -32.9 °F -27.4 °F 58% 30.31 in 10.0 mi NNE 6.9 mph - N/A   Overcast
12:36 AM -18.4 °F -35.1 °F -27.4 °F 63% 30.31 in 8.0 mi NNE 6.9 mph - N/A   Overcast
12:56 AM -16.6 °F -32.9 °F -27.4 °F 58% 30.31 in 3.0 mi NNE 6.9 mph - N/A   Overcast
1:16 AM -18.4 °F -35.1 °F -27.4 °F 63% 30.31 in 3.0 mi North 6.9 mph - N/A   Overcast
1:36 AM -18.4 °F -28.9 °F -18.4 °F 100% 30.32 in 1.5 mi North 3.5 mph - N/A   Overcast
1:56 AM -18.4 °F -33.4 °F -29.2 °F 58% 30.32 in 1.0 mi NNE 5.8 mph - N/A   Overcast
2:16 AM -18.4 °F -31.4 °F -29.2 °F 58% 30.33 in 1.5 mi North 4.6 mph - N/A   Overcast
2:36 AM -20.2 °F -33.5 °F -29.2 °F 63% 30.32 in 3.0 mi North 4.6 mph - N/A   Overcast
2:56 AM -20.2 °F -35.5 °F - N/A% 30.33 in 1.8 mi NNW 5.8 mph - N/A   Overcast
3:16 AM -20.2 °F - - N/A% 30.33 in 8.0 mi Calm Calm - N/A   Overcast
3:36 AM -23.8 °F - - N/A% 30.33 in 3.0 mi Calm Calm - N/A   Overcast
3:56 AM -23.8 °F -35.0 °F - N/A% 30.33 in 7.0 mi ENE 3.5 mph - N/A   Mostly Cloudy
4:16 AM -20.2 °F -30.9 °F -29.2 °F 63% 30.34 in 3.0 mi North 3.5 mph - N/A   Partly Cloudy
4:36 AM -20.2 °F -35.5 °F -29.2 °F 63% 30.34 in 10.0 mi North 5.8 mph - N/A   Clear
4:56 AM -22.0 °F -37.7 °F - N/A% 30.35 in 10.0 mi NNW 5.8 mph - N/A   Scattered Clouds
5:16 AM -23.8 °F -39.8 °F - N/A% 30.35 in 3.0 mi NNW 5.8 mph - N/A   Overcast
5:36 AM -23.8 °F - - N/A% 30.36 in 10.0 mi Calm Calm - N/A   Mostly Cloudy
5:56 AM -22.0 °F -37.7 °F - N/A% 30.36 in 9.0 mi North 5.8 mph - N/A   Scattered Clouds
6:16 AM -23.8 °F -37.7 °F -27.4 °F 83% 30.36 in 10.0 mi North 4.6 mph - N/A   Clear
6:36 AM -20.2 °F -30.9 °F -27.4 °F 69% 30.36 in 10.0 mi North 3.5 mph - N/A   Clear
6:56 AM -22.0 °F -33.0 °F - N/A% 30.36 in 10.0 mi North 3.5 mph - N/A   Clear
7:16 AM -18.4 °F -28.9 °F -27.4 °F 63% 30.37 in 10.0 mi North 3.5 mph - N/A   Clear
7:36 AM -20.2 °F -33.5 °F - N/A% 30.38 in 10.0 mi North 4.6 mph - N/A   Clear
7:56 AM -20.2 °F -35.5 °F -29.2 °F 63% 30.38 in 10.0 mi North 5.8 mph - N/A   Clear
8:16 AM -18.4 °F -33.4 °F -27.4 °F 63% 30.38 in 6.0 mi North 5.8 mph - N/A   Clear
8:36 AM -14.8 °F -27.2 °F -18.4 °F 84% 30.39 in 10.0 mi NNW 4.6 mph - N/A   Clear
8:56 AM -18.4 °F -28.9 °F -23.8 °F 76% 30.40 in 9.0 mi North 3.5 mph - N/A   Clear
9:16 AM -16.6 °F -26.8 °F -27.4 °F 58% 30.40 in 10.0 mi North 3.5 mph - N/A   Clear
9:36 AM -14.8 °F -24.8 °F -20.2 °F 77% 30.41 in 9.0 mi North 3.5 mph - N/A   Clear
9:56 AM -14.8 °F -24.8 °F -18.4 °F 84% 30.41 in 5.0 mi NNW 3.5 mph - N/A   Clear
10:16 AM -11.2 °F - -18.4 °F 70% 30.42 in 8.0 mi Calm Calm - N/A   Clear
10:36 AM -11.2 °F -20.6 °F -20.2 °F 64% 30.42 in 10.0 mi North 3.5 mph - N/A   Clear
10:56 AM -11.2 °F -23.0 °F -20.2 °F 64% 30.43 in 10.0 mi North 4.6 mph - N/A   Clear
11:16 AM -9.4 °F -20.9 °F -13.0 °F 84% 30.43 in 9.0 mi North 4.6 mph - N/A   Clear
11:36 AM -9.4 °F - -14.8 °F 77% 30.44 in 9.0 mi Calm Calm - N/A   Clear
11:56 AM -7.6 °F - -14.8 °F 71% 30.44 in 10.0 mi Calm Calm - N/A   Clear
12:16 PM -5.8 °F - -9.4 °F 84% 30.44 in 8.0 mi Calm Calm - N/A   Clear
12:36 PM -5.8 °F -14.5 °F -11.2 °F 77% 30.44 in 10.0 mi North 3.5 mph - N/A   Clear
12:56 PM -5.8 °F - -9.4 °F 84% 30.45 in 10.0 mi Calm Calm - N/A   Clear
1:16 PM -5.8 °F - -9.4 °F 84% 30.45 in 10.0 mi Calm Calm - N/A   Clear
1:36 PM -2.2 °F - -9.4 °F 71% 30.46 in 10.0 mi Calm Calm - N/A   Clear
1:56 PM -0.4 °F - -2.2 °F 92% 30.46 in 10.0 mi Calm Calm - N/A   Clear
2:16 PM -0.4 °F - -4.0 °F 85% 30.47 in 10.0 mi Calm Calm - N/A   Clear
2:36 PM 1.4 °F - -16.6 °F 43% 30.47 in 10.0 mi Calm Calm - N/A   Clear
2:56 PM 1.4 °F -8.3 °F -23.8 °F 30% 30.47 in 7.0 mi South 4.6 mph - N/A   Clear
3:16 PM 1.4 °F -8.3 °F -20.2 °F 36% 30.48 in 7.0 mi SSW 4.6 mph - N/A   Clear
3:36 PM 1.4 °F -11.3 °F -18.4 °F 39% 30.48 in 10.0 mi South 6.9 mph - N/A   Clear
3:56 PM 1.4 °F -9.9 °F -14.8 °F 47% 30.48 in 10.0 mi SSW 5.8 mph - N/A   Clear
4:16 PM 3.2 °F -7.8 °F -9.4 °F 56% 30.48 in 10.0 mi SSW 5.8 mph - N/A   Clear
4:36 PM 3.2 °F -6.2 °F -7.6 °F 61% 30.48 in 10.0 mi SSW 4.6 mph - N/A   Clear
4:56 PM 5.0 °F -4.1 °F -4.0 °F 66% 30.48 in 10.0 mi SSW 4.6 mph - N/A   Clear
5:16 PM 6.8 °F -0.1 °F -4.0 °F 61% 30.48 in 10.0 mi SSW 3.5 mph - N/A   Clear
5:36 PM 6.8 °F -2.0 °F -4.0 °F 61% 30.48 in 10.0 mi SW 4.6 mph - N/A   Clear
5:56 PM 6.8 °F -2.0 °F -2.2 °F 67% 30.48 in 10.0 mi SW 4.6 mph - N/A   Clear
6:16 PM 6.8 °F -2.0 °F -5.8 °F 56% 30.48 in 10.0 mi SSW 4.6 mph - N/A   Clear
6:36 PM 3.2 °F - -5.8 °F 66% 30.49 in 10.0 mi Calm Calm - N/A   Clear
6:56 PM 5.0 °F - -5.8 °F 61% 30.49 in 10.0 mi Calm Calm - N/A   Clear
7:16 PM 3.2 °F - -7.6 °F 61% 30.49 in 10.0 mi Calm Calm - N/A   Clear
7:36 PM 3.2 °F - -7.6 °F 61% 30.49 in 10.0 mi Calm Calm - N/A   Clear
7:56 PM 1.4 °F - -11.2 °F 56% 30.49 in 10.0 mi Calm Calm - N/A   Clear
8:16 PM -2.2 °F - -14.8 °F 55% 30.49 in 10.0 mi Calm Calm - N/A   Clear
8:36 PM -2.2 °F - -14.8 °F 55% 30.49 in 10.0 mi Calm Calm - N/A   Clear
8:56 PM -2.2 °F -12.5 °F -13.0 °F 60% 30.49 in 10.0 mi WSW 4.6 mph - N/A   Clear
9:16 PM -5.8 °F - -18.4 °F 55% 30.49 in 10.0 mi Calm Calm - N/A   Clear
9:36 PM -5.8 °F - -14.8 °F 65% 30.49 in 10.0 mi Calm Calm - N/A   Clear
9:56 PM -4.0 °F -12.4 °F -13.0 °F 65% 30.49 in 10.0 mi SW 3.5 mph - N/A   Clear
10:16 PM -5.8 °F - -18.4 °F 55% 30.50 in 10.0 mi Calm Calm - N/A   Clear
10:36 PM -7.6 °F - -16.6 °F 65% 30.50 in 10.0 mi Calm Calm - N/A   Clear
10:56 PM -5.8 °F - -16.6 °F 60% 30.50 in 10.0 mi Calm Calm - N/A   Clear
11:16 PM -7.6 °F - -18.4 °F 59% 30.50 in 10.0 mi Calm Calm - N/A   Clear
11:36 PM -7.6 °F -16.5 °F -16.6 °F 65% 30.51 in 10.0 mi South 3.5 mph - N/A   Clear
11:56 PM -7.6 °F - -16.6 °F 65% 30.51 in 10.0 mi Calm Calm - N/A   Clear